DW5785 Weather Reports


time (UTC)temp
F
wind
direction
speed
knots
gust
knots
rain 1hr
in
rain 24hr
in
rain mn
in
humidity
%
barometer
mb
20260505010009 62 295 1.7 3.5 0.00 0.02 0.00 69 1010.5
20260505005509 62 312 2.6 3.5 0.00 0.02 0.00 68 1010.5
20260505005013 62 328 1.7 3.5 0.00 0.02 0.00 69 1010.6
20260505004510 62 322 1.7 3.5 0.00 0.02 0.00 70 1010.7
20260505004010 61 296 1.7 1.7 0.00 0.02 0.00 71 1010.7
20260505003511 61 296 1.7 2.6 0.00 0.02 0.00 72 1010.7
20260505003013 61 282 3.5 4.3 0.00 0.02 0.00 72 1010.8
20260505002510 61 299 1.7 6.1 0.00 0.02 0.00 73 1010.9
20260505002019 61 297 4.3 6.1 0.00 0.02 0.00 73 1010.9
20260505001510 61 303 4.3 4.3 0.00 0.02 0.00 73 1010.9
20260505001013 61 282 3.5 4.3 0.00 0.02 0.00 72 1011.1
20260505000511 61 319 3.5 4.3 0.00 0.02 0.00 72 1011.3
20260505000013 61 335 2.6 3.5 0.00 0.02 0.00 71 1011.3
20260504235513 61 353 0.0 11.3 0.00 0.02 0.00 72 1011.3
20260504235016 61 356 1.7 12.2 0.00 0.02 0.00 73 1011.4
20260504234516 60 325 3.5 9.6 0.01 0.02 0.00 75 1011.3
20260504234013 60 13 9.6 10.4 0.01 0.02 0.00 76 1011.3
20260504233517 60 37 0.0 6.1 0.01 0.02 0.00 76 1011.4
20260504233010 60 80 4.3 5.2 0.02 0.02 0.00 75 1011.6
20260504232513 60 54 3.5 10.4 0.02 0.02 0.00 75 1011.8
20260504232010 60 43 7.0 7.0 0.02 0.02 0.00 75 1012.0
20260504231516 60 48 3.5 7.0 0.02 0.02 0.00 75 1012.0
20260504231013 61 70 6.1 11.3 0.02 0.02 0.00 72 1012.1
20260504230520 62 94 7.8 7.8 0.02 0.02 0.00 65 1012.2
20260504230010 62 15 5.2 9.6 0.02 0.02 0.00 68 1012.0
20260504225513 62 358 5.2 7.0 0.01 0.01 0.00 67 1012.2
20260504225010 62 37 5.2 9.6 0.01 0.01 0.00 68 1012.6
20260504224513 62 43 0.9 4.3 0.00 0.00 0.00 69 1012.9
20260504224013 62 201 0.0 3.5 0.00 0.00 0.00 68 1013.4
20260504223514 62 194 1.7 3.5 0.00 0.00 0.00 67 1013.6
20260504223010 63 172 1.7 13.0 0.00 0.00 0.00 66 1013.7
20260504222510 64 132 6.1 13.0 0.00 0.00 0.00 64 1013.7
20260504222019 66 120 4.3 6.1 0.00 0.00 0.00 57 1013.2
20260504221510 66 167 2.6 4.3 0.00 0.00 0.00 55 1012.8
20260504221010 65 195 4.3 5.2 0.00 0.00 0.00 56 1012.6
20260504220517 65 191 3.5 5.2 0.00 0.00 0.00 56 1012.5
20260504220010 65 209 1.7 5.2 0.00 0.00 0.00 56 1012.3
20260504215509 66 256 4.3 5.2 0.00 0.00 0.00 55 1012.3
20260504215015 66 261 3.5 3.5 0.00 0.00 0.00 54 1012.2
20260504214509 67 262 3.5 4.3 0.00 0.00 0.00 52 1012.2
20260504214012 67 304 2.6 4.3 0.00 0.00 0.00 51 1012.2
20260504213514 67 306 2.6 5.2 0.00 0.00 0.00 51 1012.3
20260504213009 67 325 1.7 4.3 0.00 0.00 0.00 51 1012.3
20260504212515 67 351 3.5 5.2 0.00 0.00 0.00 52 1012.3
20260504212010 67 316 0.9 4.3 0.00 0.00 0.00 51 1012.4
20260504211517 67 298 0.9 3.5 0.00 0.00 0.00 51 1012.4
20260504211012 67 318 1.7 4.3 0.00 0.00 0.00 51 1012.4
20260504210510 67 312 2.6 5.2 0.00 0.00 0.00 51 1012.5
20260504210016 67 306 1.7 3.5 0.00 0.00 0.00 51 1012.5
20260504205511 67 277 0.9 3.5 0.00 0.00 0.00 51 1012.5
20260504205013 68 287 2.6 4.3 0.00 0.00 0.00 50 1012.6
20260504204512 68 299 1.7 4.3 0.00 0.00 0.00 49 1012.6
20260504204012 68 330 0.9 4.3 0.00 0.00 0.00 49 1012.7
20260504203511 68 303 1.7 4.3 0.00 0.00 0.00 49 1012.6
20260504203013 68 314 1.7 3.5 0.00 0.00 0.00 49 1012.6
20260504202509 68 337 0.9 3.5 0.00 0.00 0.00 49 1012.6
20260504202012 68 314 0.9 2.6 0.00 0.00 0.00 49 1012.6
20260504201510 68 331 1.7 2.6 0.00 0.00 0.00 49 1012.7
20260504201016 68 345 1.7 2.6 0.00 0.00 0.00 48 1012.7
20260504200514 68 339 1.7 3.5 0.00 0.00 0.00 48 1012.7
20260504200013 68 346 3.5 5.2 0.00 0.00 0.00 48 1012.7
20260504195510 68 341 1.7 5.2 0.00 0.00 0.00 48 1012.6
20260504195010 69 329 1.7 4.3 0.00 0.00 0.00 48 1012.6
20260504194514 69 333 1.7 6.1 0.00 0.00 0.00 48 1012.6
20260504194009 69 21 6.1 6.1 0.00 0.00 0.00 48 1012.6
20260504193510 69 358 4.3 6.1 0.00 0.00 0.00 48 1012.6
20260504193013 69 340 4.3 6.1 0.00 0.00 0.00 47 1012.6
20260504192510 69 353 3.5 5.2 0.00 0.00 0.00 47 1012.6
20260504192016 69 352 1.7 5.2 0.00 0.00 0.00 47 1012.5
20260504191511 69 28 4.3 5.2 0.00 0.00 0.00 46 1012.5
20260504191010 69 28 1.7 6.1 0.00 0.00 0.00 46 1012.5
20260504190510 69 351 6.1 7.0 0.00 0.00 0.00 46 1012.4
20260504190010 70 14 4.3 5.2 0.00 0.00 0.00 46 1012.3
20260504185510 70 318 2.6 4.3 0.00 0.00 0.00 45 1012.3
20260504185010 70 356 2.6 6.1 0.00 0.00 0.00 45 1012.2
20260504184511 70 347 2.6 3.5 0.00 0.00 0.00 44 1012.1
20260504184010 70 343 1.7 3.5 0.00 0.00 0.00 44 1012.2
20260504183510 70 342 1.7 3.5 0.00 0.00 0.00 44 1012.2
20260504183013 70 356 0.9 3.5 0.00 0.00 0.00 43 1012.2
20260504182516 70 345 2.6 4.3 0.00 0.00 0.00 43 1012.1
20260504182013 70 306 2.6 3.5 0.00 0.00 0.00 43 1012.1
20260504181514 70 325 0.0 4.3 0.00 0.00 0.00 43 1012.1
20260504181010 70 301 0.9 4.3 0.00 0.00 0.00 44 1012.1
20260504180509 70 342 0.9 4.3 0.00 0.00 0.00 44 1012.0
20260504180009 70 343 1.7 4.3 0.00 0.00 0.00 44 1012.1
20260504175512 70 314 1.7 4.3 0.00 0.00 0.00 43 1012.1
20260504175018 71 40 0.9 5.2 0.00 0.00 0.00 44 1012.1
20260504174511 71 326 4.3 5.2 0.00 0.00 0.00 44 1012.0
20260504174009 71 346 1.7 4.3 0.00 0.00 0.00 44 1012.0
20260504173509 71 343 2.6 3.5 0.00 0.00 0.00 44 1012.0
20260504173012 71 326 0.9 3.5 0.00 0.00 0.00 44 1012.0
20260504172509 71 31 0.9 2.6 0.00 0.00 0.00 44 1012.1
20260504172010 71 282 0.9 5.2 0.00 0.00 0.00 44 1012.0
20260504171511 71 18 0.0 1.7 0.00 0.00 0.00 44 1012.1
20260504171009 71 335 0.9 4.3 0.00 0.00 0.00 44 1012.0
20260504170509 71 351 1.7 7.0 0.00 0.00 0.00 44 1012.1
20260504151016 75 352 0.9 4.3 0.00 0.00 0.00 38 1012.4
20260504150509 75 282 0.9 3.5 0.00 0.00 0.00 38 1012.5
20260504141013 74 277 0.9 5.2 0.00 0.00 0.00 39 1012.8
20260504140513 74 112 4.3 4.3 0.00 0.00 0.00 39 1012.8
20260504130509 72 325 0.9 5.2 0.00 0.00 0.00 41 1013.1
20260504110511 69 297 0.9 3.5 0.00 0.00 0.00 45 1014.0
20260504100514 67 287 1.7 5.2 0.00 0.00 0.00 46 1014.5
20260504081513 64 282 2.6 7.0 0.00 0.00 0.00 51 1014.2
20260504081018 64 282 5.2 7.0 0.00 0.00 0.00 52 1014.2
20260504080517 64 277 3.5 5.2 0.00 0.00 0.00 53 1014.3
20260504050511 55 211 0.9 3.5 0.00 0.00 0.00 66 1013.4
20260504050009 55 208 1.7 3.5 0.00 0.00 0.00 65 1013.3
20260504045515 55 228 2.6 4.3 0.00 0.00 0.00 65 1013.3
20260504045009 55 270 1.7 2.6 0.00 0.00 0.00 64 1013.3
20260504044509 55 270 0.9 1.7 0.00 0.00 0.00 65 1013.4
20260504044009 55 270 0.0 2.6 0.00 0.00 0.00 65 1013.5
20260504043511 55 272 1.7 2.6 0.00 0.00 0.00 65 1013.6
20260504043012 54 272 1.7 2.6 0.00 0.00 0.00 65 1013.7
20260504042509 54 282 2.6 2.6 0.00 0.00 0.00 66 1013.7
20260504042009 55 245 0.9 2.6 0.00 0.00 0.00 66 1013.8
20260504041512 54 245 1.7 1.7 0.00 0.00 0.00 66 1013.8
20260504041009 54 245 0.9 1.7 0.00 0.00 0.00 66 1013.9
20260504040514 54 244 0.9 1.7 0.00 0.00 0.00 66 1013.9
20260504040012 54 238 0.0 1.7 0.00 0.00 0.00 66 1013.9
20260504035509 54 238 0.9 1.7 0.00 0.00 0.00 66 1013.9
20260504035018 54 239 1.7 2.6 0.00 0.00 0.00 66 1013.9
20260504034512 55 235 1.7 3.5 0.00 0.00 0.00 66 1014.0
20260504034016 55 247 2.6 4.3 0.00 0.00 0.00 66 1013.8
20260504033511 55 247 2.6 4.3 0.00 0.00 0.00 65 1013.8
20260504033009 55 244 2.6 4.3 0.00 0.00 0.00 65 1013.7
20260504032515 56 263 1.7 3.5 0.00 0.00 0.00 63 1013.7
20260504032012 56 250 0.9 2.6 0.00 0.00 0.00 62 1013.6
20260504031510 56 252 1.7 2.6 0.00 0.00 0.00 62 1013.7
20260504031009 56 25 0.9 1.7 0.00 0.00 0.00 62 1013.7
20260504030514 56 25 0.0 1.7 0.00 0.00 0.00 61 1013.8
20260504030012 57 25 0.9 1.7 0.00 0.00 0.00 61 1013.9
20260504025509 57 25 0.0 0.0 0.00 0.00 0.00 60 1013.9
20260504025013 57 25 0.0 0.9 0.00 0.00 0.00 60 1013.9
20260504024512 57 25 0.9 3.5 0.00 0.00 0.00 60 1014.0
20260504024012 57 25 1.7 3.5 0.00 0.00 0.00 60 1013.9
20260504023511 57 25 0.9 3.5 0.00 0.00 0.00 60 1013.8
20260504023009 57 353 0.9 1.7 0.00 0.00 0.00 60 1013.8
20260504022513 57 354 0.9 0.9 0.00 0.00 0.00 60 1013.9
20260504022010 57 354 0.0 1.7 0.00 0.00 0.00 60 1013.9
20260504021515 57 354 0.9 1.7 0.00 0.00 0.00 60 1013.9
20260504021012 57 354 0.9 1.7 0.00 0.00 0.00 60 1013.8
20260504020511 57 354 0.9 1.7 0.00 0.00 0.00 59 1013.8
20260504020009 57 354 0.9 2.6 0.00 0.00 0.00 59 1013.8
20260504015512 58 354 0.0 1.7 0.00 0.00 0.00 59 1013.8
20260504015012 58 354 0.9 1.7 0.00 0.00 0.00 59 1013.8
20260504014509 58 12 1.7 3.5 0.00 0.00 0.00 59 1013.7
20260504014009 58 351 1.7 4.3 0.00 0.00 0.00 58 1013.7
20260504013511 58 351 3.5 5.2 0.00 0.00 0.00 58 1013.7
20260504013012 59 347 2.6 3.5 0.00 0.00 0.00 57 1013.8
20260504012515 59 325 1.7 3.5 0.00 0.00 0.00 56 1013.8
20260504012009 59 337 1.7 4.3 0.00 0.00 0.00 56 1013.9
20260504011510 59 332 3.5 4.3 0.00 0.00 0.00 55 1013.9
20260504011012 60 307 3.5 5.2 0.00 0.00 0.00 55 1013.8
20260504010511 60 306 3.5 3.5 0.00 0.00 0.00 55 1013.8